Mankato, MN

3:07 PM CDT on October 20, 2019 (GMT -0500)
Mankato Regional

Weather History for KMKT - May, 2019

Change the Weather History Date:

Monday, May 6, 2019

  Actual Average Record
Temperature  
Mean Temperature 52 °F -  
Max Temperature 57 °F 63 °F 91 °F (2016)
Min Temperature 46 °F 44 °F 35 °F (2006)
Degree Days  
Heating Degree Days 14    
Growing Degree Days 2 (Base 50)    
Moisture  
Dew Point 32 °F    
Average Humidity 49    
Maximum Humidity 79    
Minimum Humidity 32    
Precipitation  
Precipitation 0.01 in - - ()
Sea Level Pressure  
Sea Level Pressure 30.12 in    
Wind  
Wind Speed 11 mph (North)    
Max Wind Speed 16 mph    
Max Gust Speed 23 mph    
Visibility 10 miles    
Events Rain    
Averages and records for this station are not official NWS values.
T = Trace of Precipitation, MM = Missing Value Source: NWS Daily Summary

Daily Weather History Graph

Daily Weather History Graph

Search for Another Location

Airport or City:

Astronomy

May. 06, 2019 Rise Set
Actual Time 6:00 AM CDT 8:25 PM CDT
Civil Twilight 5:27 AM CDT 8:57 PM CDT
Nautical Twilight 4:47 AM CDT 9:38 PM CDT
Astronomical Twilight 4:02 AM CDT 10:24 PM CDT
Moon 7:22 AM CDT (5/6) 10:25 PM CDT (5/6)
Length of Visible Light 15h 30m
Length of Day
14h 25m
Waxing Crescent, 3% of the Moon is Illuminated
May 6
Waxing Crescent
May 11
First Quarter
May 18
Full
May 26
Last Quarter
Jun 3
New

Hourly Weather History & Observations

Time (CDT) Temp. Windchill Dew Point Humidity Pressure Visibility Wind Dir Wind Speed Gust Speed Precip Events Conditions
12:56 AM 52.0 °F - 36.0 °F 54% 29.96 in 10.0 mi North 11.5 mph - N/A   Overcast
1:56 AM 51.1 °F - 35.1 °F 54% 29.98 in 10.0 mi North 15.0 mph - N/A   Overcast
2:56 AM 46.9 °F - 39.0 °F 74% 30.01 in 10.0 mi North 13.8 mph - 0.00 in Rain Light Rain
3:56 AM 46.9 °F - 39.9 °F 77% 30.03 in 10.0 mi NNE 6.9 mph - 0.01 in Rain Light Rain
4:56 AM 46.0 °F 43.9 °F 39.9 °F 79% 30.04 in 10.0 mi North 4.6 mph - 0.00 in   Overcast
5:56 AM 46.0 °F - 39.9 °F 79% 30.06 in 10.0 mi Calm Calm - N/A   Overcast
6:56 AM 46.9 °F - 35.1 °F 63% 30.08 in 10.0 mi North 8.1 mph - N/A   Overcast
7:56 AM 48.0 °F - 32.0 °F 54% 30.09 in 10.0 mi NNE 16.1 mph - N/A   Clear
8:56 AM 48.9 °F - 32.0 °F 52% 30.10 in 10.0 mi North 16.1 mph - N/A   Scattered Clouds
9:56 AM 51.1 °F - 32.0 °F 48% 30.12 in 10.0 mi NNE 13.8 mph - N/A   Mostly Cloudy
10:56 AM 52.0 °F - 28.9 °F 41% 30.14 in 10.0 mi NNE 16.1 mph - N/A   Mostly Cloudy
11:56 AM 54.0 °F - 30.0 °F 40% 30.15 in 10.0 mi NNE 10.4 mph - N/A   Overcast
12:56 PM 54.0 °F - 28.0 °F 37% 30.14 in 10.0 mi NE 12.7 mph - N/A   Clear
1:56 PM 55.0 °F - 28.0 °F 35% 30.13 in 10.0 mi North 11.5 mph 18.4 mph N/A   Clear
2:56 PM 55.9 °F - 28.0 °F 34% 30.14 in 10.0 mi North 16.1 mph 21.9 mph N/A   Clear
3:56 PM 57.0 °F - 28.9 °F 34% 30.13 in 10.0 mi NNW 12.7 mph - N/A   Clear
4:56 PM 57.0 °F - 28.0 °F 33% 30.13 in 10.0 mi North 10.4 mph - N/A   Mostly Cloudy
5:56 PM 55.9 °F - 26.1 °F 32% 30.15 in 10.0 mi North 10.4 mph - N/A   Mostly Cloudy
6:56 PM 55.0 °F - 26.1 °F 33% 30.16 in 10.0 mi North 5.8 mph - N/A   Overcast
7:56 PM 54.0 °F - 27.0 °F 35% 30.19 in 10.0 mi NNW 11.5 mph - N/A   Overcast
8:56 PM 53.1 °F - 27.0 °F 37% 30.20 in 10.0 mi NNW 12.7 mph 23.0 mph N/A   Overcast
9:56 PM 50.0 °F - 30.9 °F 48% 30.23 in 10.0 mi NNW 10.4 mph - 0.00 in Rain Light Rain
10:56 PM 48.9 °F - 30.9 °F 50% 30.24 in 10.0 mi WNW 6.9 mph - 0.00 in   Overcast
11:56 PM 46.9 °F - 32.0 °F 56% 30.24 in 10.0 mi NW 12.7 mph - N/A   Overcast